Flag for Austria Weather past 2 weeks in Traun, Upper Austria, Austria

Now
70 °F

Sunny.


Feels Like: 70 °F
Forecast: 57 / 75 °F
Wind: 7 mph from East

Location: Linz / Hoersching-Flughafen

Current Time: Sep 19, 2014 at 6:49:06 PM

Latest Report: Sep 19, 2014 at 6:20 PM


Visibility: 10 mi

Pressure: 29.95 "Hg

Humidity: 69%

Dew point: 59 °F

Location of TraunLocation

Historic Weather in Traun — Graph

°F

Traun temperature yesterday

Maximum temperature yesterday: 73 °F (at 1:50 PM)
Minimum temperature yesterday: 54 °F (at 4:50 AM)
Average temperature yesterday: 63 °F

Past Weeks' High & Low Weather Summary

 TemperatureHumidityPressure
High79 °F (Sep 7, 4:20 PM)100% (Sep 5, 9:50 PM)30.09 "Hg (Sep 5, 9:50 PM)
Low52 °F (Sep 13, 1:50 AM)41% (Sep 17, 3:20 PM)29.89 "Hg (Sep 12, 4:20 AM)
Average62 °F81%29.99 "Hg
* Reported Sep 4 5:20 PM — Sep 19 5:20 PM, Traun, Weather by CustomWeather, © 2014

Note: Actual official high and low records may vary slightly from our data, if they occured in-between our weather recording intervals... More about our weather records

Advertising

Traun weather history for previous 24 hours

 ConditionsComfort  
Time TempWeatherWind HumidityBarometerVisibility
5:20 PM
Sep 19
73 °FPassing clouds.7 mph57%29.95 "HgN/A
4:50 PM75 °FPassing clouds.7 mph54%29.95 "HgN/A
4:20 PM75 °FPassing clouds.7 mph57%29.95 "HgN/A
3:50 PM75 °FScattered clouds.5 mph50%29.98 "HgN/A
3:20 PM73 °FScattered clouds.6 mph57%29.98 "HgN/A
2:50 PM73 °FPartly sunny.7 mph61%29.98 "HgN/A
2:20 PM72 °FPartly sunny.5 mph57%29.98 "HgN/A
1:50 PM72 °FPartly sunny.3 mph57%29.98 "HgN/A
1:20 PM70 °FScattered clouds.6 mph60%30.01 "HgN/A
12:50 PM70 °FPassing clouds.5 mph57%30.01 "HgN/A
12:20 PM68 °FPassing clouds.5 mph60%30.01 "HgN/A
11:50 AM66 °FPassing clouds.5 mph64%30.01 "HgN/A
11:20 AM66 °FPassing clouds.6 mph64%30.01 "HgN/A
10:50 AM64 °FPassing clouds.5 mph64%30.04 "HgN/A
10:20 AM63 °FPassing clouds.6 mph73%30.01 "HgN/A
9:50 AM61 °FPassing clouds.6 mph72%30.01 "HgN/A
9:20 AM59 °FPassing clouds.6 mph77%30.01 "HgN/A
8:50 AM59 °FPassing clouds.3 mph82%30.01 "HgN/A
8:20 AM57 °FPassing clouds.3 mph82%30.01 "HgN/A
7:50 AM57 °FSunny.2 mph82%30.01 "Hg10 mi
7:20 AM55 °FClear.2 mph88%30.01 "Hg10 mi
6:50 AM55 °FClear.3 mph88%30.01 "Hg10 mi
6:20 AM55 °FClear.3 mph88%29.98 "Hg10 mi
5:50 AM55 °FClear.3 mph88%29.98 "Hg10 mi
5:20 AM54 °FClear.3 mph94%29.98 "Hg10 mi
4:50 AM54 °FClear.3 mph94%29.98 "Hg10 mi
4:20 AM54 °FClear.3 mph88%29.98 "Hg10 mi
3:50 AM54 °FClear.2 mph94%29.98 "Hg10 mi
3:20 AM54 °FClear.2 mph94%29.98 "Hg10 mi
2:50 AM55 °FClear.2 mph88%29.98 "Hg10 mi
2:20 AM55 °FPassing clouds.3 mph82%29.98 "HgN/A
1:50 AM55 °FClear.1 mph88%29.98 "Hg10 mi
1:20 AM57 °FClear.1 mph82%29.98 "Hg10 mi
12:50 AM57 °FClear.5 mph82%29.98 "Hg10 mi
12:20 AM57 °FCool.5 mph82%29.98 "HgN/A
11:50 PM
Sep 18
59 °FCool.5 mph77%29.98 "HgN/A
11:20 PM59 °FClear.6 mph77%29.98 "Hg10 mi
10:50 PM59 °FClear.6 mph82%29.98 "Hg10 mi
10:20 PM61 °FClear.6 mph77%29.98 "Hg10 mi
9:50 PM61 °FClear.5 mph77%29.98 "Hg10 mi
9:20 PM63 °FClear.6 mph73%29.95 "Hg10 mi
8:50 PM63 °FClear.6 mph73%29.95 "Hg10 mi
8:20 PM64 °FClear.7 mph68%29.95 "Hg10 mi
7:50 PM64 °FSunny.7 mph68%29.95 "Hg10 mi
7:20 PM66 °FSunny.8 mph64%29.95 "Hg10 mi
6:50 PM68 °FSunny.9 mph60%29.95 "Hg10 mi
6:20 PM70 °FSunny.10 mph57%29.95 "Hg10 mi
Weather by CustomWeather, © 2014

See weather overviewHow to use our weather pages